Regional Weather Roundup
Issued by NWS

Home | Current Version | Previous Version | Text Only | Print | Product List | Glossary On
Versions: 1 2 3 4 5 6 7 8 9 10 11 12 13 14 15 16 17 18 19 20 21 22 23 24 25 26 27 28 29 30 31 32 33 34 35 36 37 38 39 40 41 42 43 44 45 46 47 48 49 50
000
ASUS43 KDTX 221810
RWRMI
MICHIGAN HOURLY REGIONAL WEATHER ROUNDUP
NATIONAL WEATHER SERVICE DETROIT/PONTIAC MI
100 PM EST MON JAN 22 2018

NOTE: "FAIR" INDICATES FEW OR NO CLOUDS BELOW 12,000 FEET WITH NO
SIGNIFICANT WEATHER AND/OR OBSTRUCTION TO VISIBILITY.

MIZ047>049-052>055-059>063-066>070-074>076-081>083-221900-
SOUTHEAST LOWER MICHIGAN

CITY           SKY/WX    TMP DP  RH WIND       PRES   REMARKS
ADRIAN         LGT RAIN  49  45  86 SW9       29.71F
6HR MIN TEMP:  38; 6HR MAX TEMP:  53; 6HR PCP:  0.08;

ALMA           LGT RAIN  35  35 100 E8        29.69F WCI  29
6HR MIN TEMP:  35; 6HR MAX TEMP:  36;

ANN ARBOR      LGT RAIN  51  48  89 S10       29.71F FOG
BAD AXE        CLOUDY    35  35  99 E7        29.74F WCI  30
6HR MIN TEMP:  34; 6HR MAX TEMP:  36;

CARO           CLOUDY    39  39  99 SE7       29.71F WCI  34
DETROIT CITY   FAIR      53  46  77 S12       29.74F
6HR MIN TEMP:  37; 6HR MAX TEMP:  53; 6HR PCP:  0.12;

DETROIT        CLOUDY    52  47  83 S8        29.73F
6HR MIN TEMP:  40; 6HR MAX TEMP:  54; 6HR PCP:  0.12;

FLINT          PTSUNNY   47  45  93 S8        29.70F
6HR MIN TEMP:  36; 6HR MAX TEMP:  47; 6HR PCP:  0.56;

GROSSE ILE     PTSUNNY   42  40  93 S7        29.73F
6HR MIN TEMP:  40; 6HR MAX TEMP:  46; 6HR PCP:  0.04;

HILLSDALE      CLOUDY    50  46  87 S13       29.68F
HOWELL         RAIN      49  47  92 S12       29.68F
6HR MIN TEMP:  39; 6HR MAX TEMP:  49; 6HR PCP:  0.14;


CITY           SKY/WX    TMP DP  RH WIND       PRES   REMARKS
JACKSON        PTSUNNY   51  48  89 S12       29.66F
6HR MIN TEMP:  41; 6HR MAX TEMP:  51; 6HR PCP:  0.05;

LAMBERTVILLE   PTSUNNY   56  46  69 S10G21    29.73F
6HR MIN TEMP:  44; 6HR MAX TEMP:  57;

LANSING        FOG       41  41 100 E5        29.67F VSB 1
6HR MIN TEMP:  38; 6HR MAX TEMP:  41; 6HR PCP:  0.45;

LAPEER         PTSUNNY   44  44  99 SE3       29.71F
6HR MIN TEMP:  35; 6HR MAX TEMP:  44; 6HR PCP:  0.26;

MONROE         CLOUDY    55  45  68 S15G21    29.72F
6HR MIN TEMP:  40; 6HR MAX TEMP:  55; 6HR PCP:  0.02;

MT. CLEMENS    PTSUNNY   47  41  80 SE9       29.74F
                                      6HR PCP:  0.31;

PONTIAC        PTSUNNY   49  46  90 S10G20    29.71F
6HR MIN TEMP:  37; 6HR MAX TEMP:  49; 6HR PCP:  0.18;

PORT HOPE        N/A     34  33  96 E15       29.75F WCI  24
6HR MIN TEMP:  34; 6HR MAX TEMP:  34; 6HR PCP:  0.51;

PORT HURON     FAIR      46  45  93 SE9       29.76F
TRI CITIES     LGT RAIN  36  36 100 NE7       29.71F FOG     WCI  30
6HR MIN TEMP:  35; 6HR MAX TEMP:  36; 6HR PCP:  0.54;

MIDLAND        LGT RAIN  35  35  99 NE10      29.71F WCI  28
6HR MIN TEMP:  35; 6HR MAX TEMP:  36; 6HR PCP:  0.42;

TROY           FAIR      51  49  95 S6        29.75F
SAGINAW HB     CLOUDY    36  36 100 E3        29.70F FOG
$$
MIZ043>046-050>051-056>058-064>065-071>073-077>080-221900-
SOUTHWEST LOWER MICHIGAN

CITY           SKY/WX    TMP DP  RH WIND       PRES   REMARKS
BATTLE CREEK   CLOUDY    51  48  89 S16       29.64F
6HR MIN TEMP:  44; 6HR MAX TEMP:  51; 6HR PCP:  0.14;

BENTON HARBOR  CLOUDY    53  48  83 S16G23    29.58F
6HR MIN TEMP:  49; 6HR MAX TEMP:  53; 6HR PCP:  0.17;

BIG RAPIDS     MIX PCPN  35  33  90 E8        29.66F WCI  29
6HR MIN TEMP:  35; 6HR MAX TEMP:  36; 6HR PCP:  0.38;

COLDWATER      PTSUNNY   53  50  92 S12G20    29.65F
6HR MIN TEMP:  46; 6HR MAX TEMP:  53;

FREMONT        LGT RAIN  37  35  92 E9        29.61F WCI  30
6HR MIN TEMP:  37; 6HR MAX TEMP:  37;

HOLLAND        CLOUDY    43  42  97 SE7       29.60F
6HR MIN TEMP:  38; 6HR MAX TEMP:  43; 6HR PCP:  0.79;

GRAND RAPIDS   CLOUDY    39  39 100 E8        29.63F WCI  33
6HR MIN TEMP:  37; 6HR MAX TEMP:  39; 6HR PCP:  0.74;

IONIA          LGT RAIN  37  37 100 E8        29.65F WCI  30
6HR MIN TEMP:  36; 6HR MAX TEMP:  37; 6HR PCP:  0.54;

KALAMAZOO      CLOUDY    51  47  86 S14       29.63F
6HR MIN TEMP:  46; 6HR MAX TEMP:  51; 6HR PCP:  0.15;

LUDINGTON      RAIN      37  37 100 E16G22    29.60F WCI  28
6HR MIN TEMP:  37; 6HR MAX TEMP:  38; 6HR PCP:  0.45;

MARSHALL       CLOUDY    50  49  97 S7        29.65F
6HR MIN TEMP:  41; 6HR MAX TEMP:  50; 6HR PCP:  0.08;

MOUNT PLEASANT RAIN      36  35  95 E7        29.69F WCI  31
6HR MIN TEMP:  36; 6HR MAX TEMP:  37; 6HR PCP:  0.46;

MUSKEGON       LGT RAIN  41  38  89 E12       29.60F
6HR MIN TEMP:  38; 6HR MAX TEMP:  41; 6HR PCP:  0.90;

SOUTH HAVEN    CLOUDY    53  48  85 S15G21    29.58F
$$
MIZ016>042-221900-
NORTHERN LOWER MICHIGAN

CITY           SKY/WX    TMP DP  RH WIND       PRES   REMARKS
ALPENA         HVY RAIN  33  33 100 E16G28    29.83F FOG     WCI  23
6HR MIN TEMP:  32; 6HR MAX TEMP:  33; 6HR PCP:  0.21;

BEAVER ISLAND  SNOW      29  28  94 E18G33    29.80F VSB 1/2 WCI  17
6HR MIN TEMP:  29; 6HR MAX TEMP:  33;

BELLAIRE       LGT SNOW  34  33  97 NE10G18   29.72F WCI  26
6HR MIN TEMP:  34; 6HR MAX TEMP:  36;

CADILLAC       LGT SNOW  34  34  99 E17       29.65F WCI  24
CHARLEVOIX     LGT SNOW  32  32 100 E14       29.76F WCI  22
6HR MIN TEMP:  32; 6HR MAX TEMP:  35;

FRANKFORT      LGT RAIN  37  36  95 E10       29.65F WCI  30
GAYLORD        FRZ RAIN  31  31 100 E14G22    29.71F FOG     WCI  21
6HR MIN TEMP:  31; 6HR MAX TEMP:  32; 6HR PCP:  0.18;

GRAYLING       MIX PCPN  33  31  94 E12G26    29.71F WCI  24
6HR MIN TEMP:  32; 6HR MAX TEMP:  33;

HARBOR SPRINGS LGT SNOW  30  28  95 NE21G29   29.76F WCI  17
HOUGHTON LAKE  LGT RAIN  34  33  96 E17G26    29.68F WCI  23
6HR MIN TEMP:  34; 6HR MAX TEMP:  34; 6HR PCP:  0.23;

MANISTEE       RAIN      37  35  92 E16       29.63F FOG     WCI  28
OSCODA         LGT SNOW  35  34  98 NE14      29.78F WCI  25
6HR MIN TEMP:  33; 6HR MAX TEMP:  35; 6HR PCP:  0.34;

PELLSTON       LGT SNOW  29  27  92 E15G23    29.82F VSB 3/4 WCI  18
6HR MIN TEMP:  29; 6HR MAX TEMP:  34; 6HR PCP:  0.02;

ROGERS CITY    LGT SNOW  30  29  94 E15G22    29.87F VSB 1   WCI  19
TRAVERSE CITY  RAIN      36  34  92 E6        29.71F FOG     WCI  31
6HR MIN TEMP:  36; 6HR MAX TEMP:  38; 6HR PCP:  0.29;

$$
MIZ007>008-015-221900-
EASTERN UPPER MICHIGAN

CITY           SKY/WX    TMP DP  RH WIND       PRES   REMARKS
KINROSS        LGT SNOW  27  23  85 E16       29.89F FOG     WCI  15
6HR MIN TEMP:  26; 6HR MAX TEMP:  28;

MACKINAC ISLAN LGT SNOW  27  26  94 E20G28    29.85F VSB 3/4 WCI  14
6HR MIN TEMP:  27; 6HR MAX TEMP:  32;

NEWBERRY       CLOUDY    27  25  90 NE16      29.87F WCI  15
6HR MIN TEMP:  27; 6HR MAX TEMP:  28;

S. S. MARIE    CLOUDY    30  22  72 E12G20    29.91F WCI  20
6HR MIN TEMP:  27; 6HR MAX TEMP:  30;

MUNISING         N/A     29  27  92 NE17      29.86F WCI  17
6HR MIN TEMP:  29; 6HR MAX TEMP:  33;

$$
MIZ004>006-011>014-085-221900-
CENTRAL UPPER MICHIGAN

CITY           SKY/WX    TMP DP  RH WIND       PRES   REMARKS
MANISTIQUE     LGT SNOW  30  28  93 NE14G20   29.83F WCI  20
ESCANABA       LGT SNOW  31  29  92 NE12G18   29.80F VSB 3/4 WCI  22
6HR MIN TEMP:  31; 6HR MAX TEMP:  34; 6HR PCP: TRACE;

MENOMINEE      LGT SNOW  30  30 100 NE30G37   29.70F VSB 3/4 WCI  15
6HR MIN TEMP:  31; 6HR MAX TEMP:  33; 6HR PCP:  0.03;

SAWYER-GWINN   CLOUDY    27  25  93 NE20      29.84F FOG     WCI  13
$$
MIZ001>003-009>011-084-221900-
WESTERN UPPER MICHIGAN

CITY           SKY/WX    TMP DP  RH WIND       PRES   REMARKS
IRON MOUNTAIN  SNOW      32  28  85 NE13G22   29.76F VSB 1/2 WCI  22
6HR MIN TEMP:  31; 6HR MAX TEMP:  32; 6HR PCP: TRACE;

HOUGHTON       CLOUDY    26  22  84 E12       29.91F WCI  16
6HR MIN TEMP:  26; 6HR MAX TEMP:  26;

COPPER HARBOR    N/A     27  23  85 E12G21    29.98F WCI  17
6HR MIN TEMP:  27; 6HR MAX TEMP:  27;

IRONWOOD       LGT SNOW  27  25  93 NE14      29.84F FOG     WCI  15
6HR MIN TEMP:  27; 6HR MAX TEMP:  28; 6HR PCP: TRACE;

$$

ABBREVIATIONS USED IN REMARKS
   TC - TEMPERATURE IN CELSIUS
  WCI - WIND CHILL INDEX
   HX - HEAT INDEX
  VSB - VISIBILITY




USA.gov is the U.S. government's official web portal to all federal, state and local government web resources and services.